Temp
-1 -1 -0 -1 -0 -0 -0 -1 -1 -1 -1 -1 -1 -1 -1 -0 -0 0 1 1 2 2 3 3 3 4 5 5 3 5 4 4 3 4 5 4 5 6 6 7 6 6 5 4 4 4 4 6 5 4 0 1 1 1
-1 -1 -0 -1 -1 -0 -1 -1 -1 -1 -1 -1 -1 -1 -0 -0 -0 0 1 1 2 2 2 3 4 3 4 5 5 5 4 5 6 3 3 5 5 4 5 5 7 5 5 3 3 2 1 2 4 3 2 1 0 0
-1 -0 -0 -0 -1 -1 -1 -1 -1 -1 -1 -1 -1 -1 -0 -1 0 0 0 2 1 1 1 2 3 4 5 6 6 6 6 7 7 7 4 4 4 3 4 5 5 5 5 1 2 1 0 1 2 2 2 1 0 -0
-2 -1 -0 -1 -1 -1 -1 -1 -1 -1 -1 -1 -1 -1 -0 -1 -0 0 1 1 1 1 1 1 3 4 6 6 6 6 7 7 8 7 5 4 3 5 4 4 4 5 3 1 0 -0 0 1 1 1 0 0 -0 -1
-2 -1 -0 -1 -1 -1 -1 -1 -1 -1 -1 -1 -1 -1 -1 -1 -0 0 1 3 3 4 1 1 2 4 6 6 7 7 7 7 7 5 1 2 4 4 4 4 1 4 1 0 -0 1 0 -0 0 0 -0 -1 -1 -1
-2 -1 -1 -1 -1 -1 -1 -1 -1 -1 -1 -1 -1 -1 -0 -0 0 0 0 3 4 4 4 1 3 4 5 6 6 7 7 7 6 5 3 4 5 4 1 1 3 3 5 6 2 2 2 0 -0 -1 -1 -1 -2 -2
-2 -1 -1 -1 -1 -1 -1 -1 -1 -1 -1 -1 -1 -1 -0 2 2 1 2 3 4 5 4 1 2 4 4 5 5 6 6 6 6 5 4 4 5 5 0 2 2 2 4 5 3 2 -1 -0 -1 -1 -2 -2 -2 -3
-2 -1 -1 -1 -1 -2 -1 -1 -1 -1 -1 -1 -1 -1 0 0 2 3 4 4 5 4 4 -0 1 3 4 4 4 5 5 5 4 4 4 3 5 3 0 2 1 2 2 1 1 2 1 -0 -1 -2 -2 -2 -3 -4
-2 -2 -1 -1 -2 -1 -1 -1 -1 -1 -2 -1 -0 1 1 0 2 3 4 5 5 5 2 0 -0 -0 4 3 3 4 4 -2 3 0 2 2 -1 1 1 1 0 1 1 1 1 1 -0 -1 -2 -2 -3 -3 -3 -5
-2 -1 -1 -2 -1 -1 -1 -1 -1 -1 -1 -1 1 2 2 0 1 4 5 5 4 4 4 0 2 -0 3 2 0 1 2 -2 -1 -0 3 -2 -1 3 3 2 2 2 1 1 -1 -2 -1 -2 -3 -3 -3 -3 -3 -4
-1 -1 -2 -2 -2 -2 -2 -2 -2 -1 -1 -1 1 1 1 2 3 4 3 2 3 0 3 3 3 1 3 -1 -2 1 -4 -2 -0 0 -1 -2 -0 1 2 2 2 2 1 0 1 -0 -1 -1 -2 -3 -4 -4 -4 -4
-2 -2 -2 -2 -2 -2 -2 -2 -1 -1 0 1 1 2 2 2 2 0 -2 0 1 1 2 1 2 3 3 3 1 0 -2 -2 1 -0 -3 -1 -1 3 3 3 2 2 1 0 -0 -0 -1 -2 -2 -3 -3 -4 -4 -4
-2 -2 -2 -2 -2 -3 -2 -2 -1 0 0 1 2 2 1 0 -3 -2 -2 -1 -1 0 2 2 -0 2 2 2 -2 -4 -3 -3 0 -5 -2 -1 1 2 3 3 2 1 1 0 -0 -1 -1 -2 -2 -3 -3 -4 -4 -4
-2 -2 -2 -2 -2 -2 -2 -1 -1 0 1 1 1 -4 -5 -5 -2 -1 -0 -2 0 1 2 3 1 2 1 -1 -3 -3 -1 -2 -4 -4 -0 -3 2 3 3 2 2 1 0 0 -0 -1 -1 -2 -2 -3 -3 -4 -4 -5
-3 -2 -2 -2 -2 -2 -1 -0 0 1 1 -0 -1 -4 -5 -2 -2 -2 -1 -1 0 2 3 2 1 1 -2 -3 -1 -2 -3 -3 -2 -2 -2 2 2 2 2 2 1 1 0 0 -0 -1 -1 -2 -2 -2 -3 -4 -4 -5
-3 -3 -3 -3 -2 -1 -1 0 1 2 -1 -1 -2 -3 -2 -2 -2 -2 -1 -1 1 2 2 3 -1 -2 -2 -2 -1 -2 -0 -2 -1 -0 1 2 2 2 2 1 1 1 0 -0 -1 -1 -2 -2 -2 -3 -3 -4 -5 -5
-2 -3 -3 -3 -1 -1 0 1 0 -1 -2 -2 -3 -3 -2 -2 -2 -2 -2 -1 0 2 -3 -1 -1 1 -1 -1 -0 -2 -2 -0 -1 0 0 1 1 1 1 1 0 -0 -1 -1 -1 -2 -2 -3 -3 -4 -4 -4 -5 -6
-3 -3 -2 -2 -1 -0 1 0 -1 -2 -3 -3 -3 -3 -3 -3 -2 -2 -2 -0 0 0 0 -1 -0 0 -3 -0 -1 -1 -2 -2 -1 -2 -2 -1 -1 -0 -0 -0 -1 -1 -1 -2 -2 -3 -3 -3 -4 -4 -4 -5 -6 -6
-2 -2 -1 -1 -1 -1 -1 -1 -1 -3 -3 -2 -2 -2 -2 -2 -2 -2 -1 -0 0 0 1 1 -1 -2 -3 -3 -3 -3 -2 -1 -2 -3 -4 -4 -3 -2 -2 -2 -2 -2 -3 -3 -3 -3 -3 -4 -4 -5 -5 -6 -6 -6
-2 -2 -2 -1 -1 -1 -0 -0 -1 -1 -2 -2 -2 -2 -2 -2 -2 -1 -1 0 0 0 -1 -2 -3 -4 -3 -4 -3 -3 -2 -2 -2 -3 -3 -3 -4 -3 -3 -3 -4 -4 -4 -4 -4 -4 -4 -4 -4 -5 -6 -6 -7 -7
-2 -1 -0 0 -1 -1 -1 -1 -1 -1 -1 -1 -1 -2 -2 -2 -2 -1 -1 -1 -1 -3 -3 -4 -5 -4 -4 -5 -5 -3 -3 -2 -2 -2 -3 -2 -4 -3 -4 -5 -4 -3 -4 -5 -5 -5 -5 -5 -6 -6 -7 -7 -7 -8
-1 -1 -0 -0 -1 -1 -1 -1 -1 -1 -1 -1 -1 -2 -2 -2 -2 -2 -1 -2 -4 -5 -5 -5 -5 -5 -5 -4 -4 -4 -4 -4 -4 -3 -3 -3 -3 -4 -4 -4 -5 -6 -7 -7 -6 -6 -7 -7 -7 -8 -8 -8 -9 -9
-1 -1 -1 -2 -2 -2 -2 -1 -1 -1 -4 -1 -1 -3 -3 -2 -3 -2 -3 -5 -6 -6 -6 -6 -6 -6 -6 -6 -6 -6 -6 -5 -5 -4 -4 -4 -4 -4 -4 -5 -5 -5 -6 -6 -7 -7 -7 -8 -8 -8 -9 -9 -9 -10
-2 -2 -2 -3 -3 -6 -3 -1 -1 -1 -1 -3 -4 -5 -5 -3 -3 -3 -7 -6 -8 -7 -7 -7 -7 -6 -6 -6 -6 -6 -6 -6 -6 -6 -5 -5 -5 -5 -5 -5 -5 -5 -6 -6 -6 -7 -7 -7 -7 -8 -8 -8 -9 -9
-2 -3 -3 -6 -4 -4 -10 -10 -8 -5 -8 -7 -7 -9 -8 -3 -10 -10 -8 -8 -9 -9 -8 -8 -8 -8 -8 -8 -8 -8 -8 -7 -7 -7 -7 -6 -6 -5 -5 -5 -6 -6 -6 -7 -7 -7 -7 -7 -7 -7 -8 -8 -9 -9
-8 -4 -6 -4 -5 -6 -7 -8 -10 -9 -10 -8 -9 -4 -3 -10 -10 -9 -9 -10 -10 -9 -10 -10 -10 -10 -10 -10 -10 -9 -9 -9 -9 -8 -8 -7 -7 -7 -7 -7 -7 -7 -7 -7 -7 -8 -8 -8 -8 -8 -8 -8 -9 -9
-9 -8 -3 -3 -3 -2 -4 -3 -3 -7 -9 -9 -10 -8 -8 -6 -11 -11 -11 -11 -11 -11 -11 -11 -11 -11 -11 -11 -10 -10 -10 -10 -10 -9 -9 -9 -8 -8 -8 -8 -8 -8 -8 -8 -8 -8 -9 -9 -9 -8 -8 -9 -9 -9
-4 -3 -8 -4 -3 -3 -9 -10 -10 -9 -11 -4 -4 -9 -9 -11 -12 -13 -13 -12 -12 -12 -11 -11 -11 -11 -11 -10 -10 -10 -10 -9 -9 -9 -10 -10 -9 -9 -9 -9 -10 -10 -10 -9 -9 -9 -9 -10 -10 -9 -9 -9 -9 -10
-4 -4 -4 -5 -4 -4 -5 -7 -7 -6 -6 -6 -6 -10 -12 -14 -14 -14 -14 -13 -13 -12 -12 -12 -12 -12 -11 -11 -11 -10 -10 -10 -9 -10 -10 -10 -10 -10 -10 -11 -10 -10 -10 -10 -10 -10 -10 -10 -10 -10 -10 -10 -10 -10
-5 -5 -5 -6 -11 -10 -6 -5 -5 -7 -7 -7 -8 -12 -14 -16 -15 -15 -14 -14 -14 -13 -14 -13 -13 -13 -12 -12 -12 -12 -11 -11 -11 -11 -11 -11 -11 -11 -11 -11 -10 -10 -10 -10 -10 -10 -10 -10 -11 -11 -11 -10 -10 -11
-5 -6 -5 -5 -7 -6 -6 -7 -8 -8 -8 -9 -10 -11 -15 -16 -17 -16 -16 -16 -15 -15 -15 -14 -14 -14 -14 -14 -13 -13 -13 -13 -13 -13 -12 -12 -12 -12 -12 -11 -11 -11 -11 -11 -11 -11 -11 -11 -11 -11 -11 -11 -11 -12
-6 -6 -6 -7 -8 -7 -8 -8 -8 -8 -9 -10 -12 -13 -15 -15 -17 -17 -17 -17 -17 -16 -16 -16 -16 -16 -16 -16 -16 -15 -15 -14 -14 -13 -13 -13 -13 -13 -13 -13 -13 -13 -13 -13 -13 -12 -12 -12 -12 -12 -12 -12 -13 -13
-6 -6 -7 -7 -8 -8 -8 -8 -7 -8 -10 -11 -12 -13 -15 -16 -18 -18 -19 -18 -18 -17 -17 -17 -17 -17 -16 -16 -16 -16 -16 -15 -15 -14 -14 -14 -14 -14 -14 -14 -14 -14 -14 -14 -14 -14 -14 -14 -14 -14 -14 -14 -15 -15
Height
1343 1350 1356 1361 1367 1372 1376 1382 1385 1388 1391 1393 1396 1399 1400 1400 1399 1399 1399 1400 1401 1402 1402 1402 1405 1406 1410 1414 1422 1427 1434 1439 1446 1451 1451 1450 1452 1449 1451 1452 1457 1463 1471 1477 1481 1485 1485 1481 1485 1488 1492 1493 1497 1500
1343 1349 1354 1359 1364 1368 1373 1379 1383 1386 1389 1391 1394 1396 1397 1398 1397 1396 1396 1398 1400 1402 1403 1403 1406 1409 1413 1416 1418 1422 1429 1433 1437 1444 1445 1443 1446 1448 1450 1459 1452 1465 1461 1474 1478 1480 1479 1479 1480 1483 1487 1491 1497 1500
1343 1348 1353 1357 1361 1364 1373 1377 1381 1384 1387 1390 1392 1393 1395 1394 1394 1392 1390 1393 1397 1399 1404 1406 1407 1411 1414 1419 1422 1426 1431 1433 1434 1435 1437 1439 1444 1449 1450 1453 1455 1457 1459 1470 1476 1485 1482 1482 1484 1486 1490 1492 1497 1501
1342 1346 1350 1354 1359 1365 1372 1377 1380 1383 1386 1388 1390 1391 1392 1393 1390 1389 1391 1392 1396 1399 1405 1410 1410 1413 1415 1419 1423 1427 1430 1433 1435 1435 1436 1441 1447 1445 1446 1446 1452 1455 1459 1470 1481 1485 1485 1486 1486 1488 1491 1494 1498 1501
1342 1345 1349 1354 1359 1366 1372 1376 1380 1383 1386 1388 1389 1390 1392 1392 1390 1390 1391 1394 1395 1398 1406 1413 1416 1417 1417 1422 1425 1426 1428 1431 1432 1435 1439 1444 1441 1444 1443 1445 1455 1453 1459 1466 1471 1470 1474 1482 1486 1489 1491 1495 1498 1501
1342 1345 1351 1354 1360 1367 1372 1376 1380 1383 1386 1388 1389 1391 1392 1392 1392 1393 1394 1397 1397 1399 1405 1417 1421 1421 1423 1424 1425 1427 1429 1430 1432 1435 1439 1440 1440 1445 1452 1456 1453 1452 1453 1455 1458 1467 1471 1478 1484 1489 1491 1494 1498 1501
1342 1346 1352 1357 1363 1368 1373 1377 1380 1384 1387 1388 1391 1392 1393 1393 1393 1393 1397 1401 1401 1402 1406 1419 1424 1426 1424 1424 1427 1429 1430 1431 1434 1437 1439 1440 1441 1441 1447 1453 1453 1453 1453 1455 1459 1465 1476 1478 1482 1488 1491 1494 1498 1501
1343 1348 1351 1358 1365 1370 1374 1378 1382 1385 1388 1389 1392 1394 1396 1395 1397 1397 1399 1401 1402 1402 1408 1421 1428 1428 1428 1429 1431 1432 1433 1434 1437 1439 1440 1441 1441 1442 1452 1449 1452 1454 1455 1459 1463 1465 1468 1476 1482 1487 1491 1494 1497 1500
1345 1347 1354 1361 1367 1372 1376 1380 1384 1388 1390 1391 1394 1398 1398 1398 1398 1400 1402 1403 1404 1408 1411 1419 1428 1436 1431 1432 1434 1435 1436 1441 1441 1442 1442 1444 1447 1449 1445 1448 1451 1453 1455 1460 1465 1467 1472 1476 1481 1486 1489 1493 1496 1498
1345 1351 1358 1363 1369 1374 1379 1383 1388 1391 1393 1395 1397 1398 1400 1402 1401 1402 1405 1405 1406 1409 1412 1419 1422 1428 1430 1433 1438 1440 1440 1445 1449 1446 1443 1447 1447 1442 1442 1445 1448 1453 1455 1459 1463 1470 1473 1477 1479 1483 1487 1491 1494 1496
1349 1356 1362 1367 1372 1377 1382 1386 1390 1394 1396 1397 1398 1399 1402 1404 1406 1405 1406 1407 1410 1416 1417 1421 1423 1426 1431 1435 1440 1441 1445 1445 1450 1447 1449 1452 1448 1441 1443 1446 1450 1453 1456 1460 1464 1466 1470 1472 1476 1481 1485 1489 1492 1494
1355 1361 1367 1372 1376 1381 1385 1389 1393 1395 1398 1399 1399 1401 1404 1406 1409 1411 1415 1413 1414 1419 1420 1423 1426 1429 1432 1435 1438 1442 1446 1447 1445 1444 1452 1452 1438 1436 1440 1445 1450 1454 1457 1460 1464 1467 1470 1473 1477 1481 1484 1487 1490 1492
1361 1366 1371 1376 1380 1384 1389 1393 1396 1398 1399 1401 1402 1405 1408 1412 1418 1420 1424 1420 1422 1419 1421 1424 1428 1431 1434 1436 1440 1443 1451 1453 1444 1456 1453 1442 1435 1436 1440 1445 1451 1455 1458 1461 1464 1468 1471 1474 1477 1480 1483 1486 1489 1491
1367 1372 1377 1381 1386 1389 1393 1397 1398 1401 1402 1403 1406 1415 1418 1423 1419 1418 1418 1419 1420 1420 1422 1426 1429 1432 1436 1438 1442 1448 1446 1446 1460 1461 1444 1436 1434 1437 1441 1446 1450 1454 1458 1461 1464 1467 1470 1473 1476 1479 1482 1485 1487 1488
1374 1379 1384 1388 1392 1395 1398 1400 1402 1403 1404 1407 1411 1421 1422 1421 1421 1420 1419 1420 1421 1423 1425 1428 1431 1433 1437 1441 1441 1446 1452 1454 1450 1446 1438 1434 1436 1439 1443 1447 1450 1454 1458 1461 1463 1466 1469 1472 1474 1477 1480 1483 1485 1486
1380 1386 1390 1394 1398 1400 1403 1404 1404 1406 1411 1415 1419 1421 1422 1422 1423 1422 1422 1423 1424 1425 1427 1429 1432 1438 1440 1440 1441 1446 1444 1450 1443 1439 1437 1437 1439 1443 1446 1450 1453 1456 1458 1461 1464 1466 1468 1471 1474 1476 1478 1480 1482 1483
1386 1389 1396 1401 1404 1406 1406 1406 1409 1414 1418 1421 1424 1424 1424 1425 1425 1426 1426 1427 1427 1429 1432 1432 1436 1435 1437 1440 1440 1440 1443 1440 1440 1440 1441 1442 1443 1446 1449 1452 1454 1456 1458 1460 1463 1465 1467 1470 1472 1473 1474 1477 1479 1480
1393 1398 1403 1405 1407 1408 1410 1412 1416 1421 1426 1427 1426 1427 1427 1427 1428 1429 1429 1430 1430 1431 1433 1435 1435 1434 1444 1440 1442 1440 1441 1443 1443 1443 1444 1444 1446 1447 1449 1452 1454 1456 1457 1459 1461 1463 1464 1466 1467 1469 1472 1474 1475 1476
1400 1404 1407 1409 1410 1411 1414 1419 1420 1425 1430 1430 1431 1431 1431 1431 1431 1432 1432 1432 1432 1433 1434 1436 1438 1441 1445 1446 1445 1443 1443 1444 1445 1446 1445 1445 1445 1447 1448 1450 1452 1454 1455 1457 1459 1460 1462 1464 1465 1467 1468 1469 1470 1472
1407 1409 1410 1411 1411 1413 1417 1421 1423 1426 1431 1433 1433 1433 1433 1433 1434 1434 1433 1433 1434 1435 1438 1441 1445 1447 1447 1448 1446 1445 1446 1447 1447 1447 1447 1446 1446 1447 1447 1448 1450 1452 1453 1454 1456 1457 1458 1460 1461 1462 1463 1464 1466 1468
1412 1413 1413 1414 1413 1416 1421 1424 1426 1430 1432 1434 1435 1435 1436 1436 1436 1436 1436 1436 1437 1442 1445 1447 1448 1448 1448 1448 1447 1446 1447 1448 1448 1448 1448 1447 1447 1447 1448 1447 1447 1448 1449 1451 1452 1453 1454 1456 1458 1459 1459 1460 1461 1464
1417 1418 1418 1417 1418 1421 1425 1427 1429 1431 1434 1435 1435 1436 1437 1438 1438 1439 1439 1440 1445 1448 1448 1449 1450 1450 1449 1448 1447 1447 1447 1447 1447 1447 1447 1447 1447 1447 1447 1446 1446 1447 1448 1449 1449 1450 1451 1452 1454 1455 1455 1455 1457 1459
1422 1422 1422 1423 1424 1427 1432 1430 1431 1433 1435 1436 1437 1438 1440 1440 1441 1441 1442 1446 1449 1451 1451 1451 1450 1450 1450 1449 1449 1449 1448 1447 1448 1446 1447 1447 1446 1446 1447 1446 1446 1447 1447 1448 1448 1448 1449 1450 1451 1451 1452 1452 1453 1454
1427 1427 1427 1428 1430 1433 1433 1432 1433 1434 1436 1437 1439 1442 1442 1442 1443 1443 1447 1449 1451 1452 1452 1451 1451 1451 1451 1450 1449 1449 1447 1447 1448 1447 1445 1445 1445 1444 1445 1446 1446 1446 1446 1446 1446 1446 1446 1447 1448 1448 1449 1449 1449 1451
1431 1433 1433 1432 1433 1434 1436 1436 1436 1437 1442 1440 1442 1445 1443 1443 1447 1449 1448 1452 1452 1451 1452 1452 1452 1451 1451 1450 1450 1449 1448 1447 1446 1445 1444 1444 1443 1443 1444 1445 1445 1444 1444 1444 1444 1444 1443 1444 1444 1444 1445 1445 1446 1447
1434 1433 1434 1433 1434 1435 1436 1440 1440 1440 1441 1442 1443 1443 1443 1445 1451 1453 1452 1452 1452 1452 1452 1452 1452 1451 1451 1450 1448 1447 1446 1445 1444 1444 1443 1443 1442 1442 1443 1443 1443 1442 1442 1442 1442 1441 1441 1440 1440 1440 1441 1442 1443 1444
1437 1435 1434 1434 1434 1433 1433 1434 1435 1436 1441 1444 1442 1443 1445 1448 1455 1454 1453 1453 1453 1453 1453 1453 1452 1451 1450 1449 1448 1446 1445 1444 1443 1443 1442 1442 1442 1442 1442 1441 1441 1441 1440 1440 1439 1438 1437 1437 1436 1436 1437 1438 1439 1440
1435 1434 1436 1435 1434 1434 1435 1436 1438 1440 1439 1438 1439 1445 1447 1450 1453 1453 1453 1453 1453 1453 1452 1452 1451 1450 1449 1448 1447 1446 1445 1443 1443 1443 1442 1442 1442 1441 1441 1440 1440 1439 1438 1437 1436 1435 1434 1433 1432 1433 1434 1436 1436 1437
1435 1435 1435 1435 1435 1435 1436 1437 1437 1438 1438 1438 1438 1444 1448 1450 1452 1452 1452 1452 1452 1451 1451 1450 1450 1450 1449 1448 1447 1445 1444 1443 1443 1442 1442 1442 1442 1442 1441 1440 1439 1438 1437 1435 1435 1433 1432 1432 1432 1432 1433 1433 1434 1434
1435 1435 1435 1435 1436 1436 1436 1436 1437 1437 1437 1438 1439 1443 1447 1450 1452 1452 1451 1451 1451 1450 1450 1450 1449 1449 1448 1448 1446 1446 1445 1444 1444 1444 1443 1442 1442 1441 1440 1439 1438 1437 1436 1435 1434 1433 1433 1432 1432 1431 1432 1432 1432 1432
1435 1435 1435 1434 1433 1434 1434 1436 1436 1437 1439 1439 1440 1442 1445 1449 1451 1451 1451 1451 1451 1450 1450 1449 1449 1448 1447 1447 1446 1446 1445 1445 1444 1443 1443 1442 1441 1440 1439 1438 1436 1435 1434 1432 1431 1431 1431 1431 1431 1430 1430 1431 1431 1431
1433 1433 1432 1432 1433 1434 1434 1434 1435 1436 1437 1438 1441 1442 1446 1448 1450 1452 1451 1450 1450 1449 1449 1448 1448 1447 1447 1447 1446 1446 1445 1445 1444 1443 1443 1442 1441 1439 1438 1437 1435 1434 1433 1431 1430 1429 1429 1429 1429 1429 1429 1430 1430 1431
1431 1430 1430 1431 1431 1432 1433 1434 1433 1434 1436 1439 1441 1443 1445 1447 1450 1453 1452 1450 1450 1448 1447 1447 1447 1447 1447 1447 1447 1446 1445 1445 1444 1443 1442 1441 1440 1439 1438 1436 1435 1434 1433 1432 1431 1431 1431 1431 1431 1431 1431 1431 1431 1432
Wind_Speed
23 23 21 22 21 24 26 21 18 15 10 10 11 7 9 8 2 4 14 19 8 4 7 17 13 16 15 16 5 10 7 2 3 4 3 4 3 5 4 5 7 5 5 3 3 3 5 16 8 5 7 19 22 18
22 22 18 17 22 20 24 21 19 16 13 9 9 8 11 9 1 4 10 21 17 3 6 13 18 17 20 19 22 11 7 5 9 3 1 1 2 2 6 3 2 2 5 5 1 3 1 3 5 12 23 25 18 16
20 20 17 15 22 24 22 21 19 14 13 11 10 8 15 3 3 4 2 18 20 17 14 16 17 16 14 16 25 9 13 17 5 4 4 1 4 1 3 3 4 3 4 4 4 0 6 21 22 21 18 18 15 16
19 18 17 13 19 26 22 20 17 14 12 9 9 8 9 5 4 9 17 10 10 9 4 7 11 11 19 17 18 19 21 16 12 7 3 2 3 4 2 4 4 3 5 6 5 7 15 16 20 22 20 19 19 19
17 16 16 16 19 25 23 19 16 16 14 9 7 7 7 2 13 9 12 9 11 6 5 7 21 13 19 21 18 14 20 17 6 3 3 1 2 1 1 3 2 1 6 4 4 21 6 21 23 23 24 22 19 18
17 16 15 17 28 26 22 19 19 17 14 9 8 15 3 4 2 7 6 21 31 25 10 3 10 18 14 16 15 13 11 10 5 5 2 2 3 4 3 2 2 4 11 13 8 30 14 28 25 21 21 17 14 13
16 16 13 28 26 23 21 18 21 17 12 10 13 9 5 11 5 3 7 14 15 16 8 3 3 6 9 16 15 13 11 8 4 4 2 2 2 2 2 3 7 11 13 13 28 28 25 30 21 20 19 17 16 15
18 16 17 32 28 25 20 19 19 16 9 19 16 12 11 11 19 19 14 13 15 12 7 3 1 4 6 5 4 7 5 5 7 2 2 2 2 3 2 10 19 20 22 30 31 17 27 28 26 21 20 21 18 16
21 16 32 30 27 24 21 21 21 19 15 21 10 13 14 11 11 13 17 16 11 6 6 3 4 3 4 4 4 5 5 3 4 2 1 2 2 2 7 20 24 31 21 22 14 14 28 31 27 23 22 21 17 18
20 33 34 27 29 25 23 23 24 19 13 18 7 4 4 6 9 6 4 2 4 4 5 3 5 2 7 3 3 2 3 1 2 2 1 3 2 2 23 28 26 25 22 25 28 27 30 29 27 27 24 20 17 16
34 30 31 28 26 23 23 25 23 21 14 10 1 3 15 18 6 5 4 4 3 3 4 4 12 5 5 3 2 1 2 0 2 3 3 1 3 4 23 24 24 21 22 21 20 24 28 26 29 27 23 19 17 15
34 33 28 25 26 27 25 26 22 17 11 5 10 14 7 4 4 4 2 3 4 2 2 6 6 6 5 4 4 0 2 2 2 1 3 2 3 13 28 27 26 20 19 20 16 18 21 21 22 22 22 22 22 17
33 30 27 26 24 23 22 25 20 13 14 16 7 4 3 5 6 3 1 2 2 1 4 7 3 4 4 3 4 3 3 3 2 3 3 4 2 22 28 28 27 20 17 20 16 15 16 17 18 21 22 22 20 17
31 32 31 31 29 25 20 22 18 14 5 5 4 4 3 3 2 1 1 1 2 5 19 14 5 3 3 3 2 4 2 2 3 1 4 2 15 25 27 28 26 25 23 21 19 18 18 17 16 16 17 18 19 20
32 31 30 30 27 21 17 18 10 11 6 6 5 3 2 1 5 5 4 5 6 14 14 10 5 4 2 3 0 2 3 1 4 3 2 7 19 26 28 28 26 26 25 22 20 20 19 18 18 17 19 18 17 17
31 29 25 26 24 17 13 13 13 9 5 4 5 4 6 6 4 7 8 9 9 9 9 5 2 3 0 3 2 3 4 4 2 2 2 12 20 25 24 22 21 21 21 19 17 16 17 18 18 17 18 20 19 18
31 28 29 26 20 15 12 14 9 6 5 4 4 9 12 9 6 4 5 5 8 5 2 2 3 3 2 2 1 1 2 0 5 5 3 8 15 17 16 16 17 19 18 17 16 16 15 16 18 20 21 22 21 19
41 29 21 18 20 20 17 8 5 5 5 8 5 9 10 8 6 5 5 5 5 3 2 1 1 2 2 2 1 2 7 10 8 2 3 5 9 11 11 12 14 16 16 16 16 16 17 19 20 21 19 20 21 22
30 24 20 16 12 8 4 4 4 5 5 7 8 9 10 9 9 9 10 10 9 7 3 3 3 2 2 4 4 11 12 6 2 2 1 3 5 10 11 11 12 14 15 15 16 16 16 16 17 17 18 20 22 21
20 16 13 10 7 4 4 5 5 6 3 3 3 6 6 6 9 9 8 7 7 4 5 3 2 3 4 5 6 8 7 4 1 5 5 4 1 3 7 10 12 13 14 15 15 15 15 15 16 16 18 19 20 20
14 12 10 11 14 9 6 4 5 6 5 4 5 4 4 6 6 7 8 7 6 5 3 5 7 6 3 4 4 2 3 2 0 2 2 3 5 4 3 4 6 8 12 14 14 14 14 14 12 12 14 16 16 15
11 5 6 8 6 5 5 6 4 5 3 4 3 3 4 3 3 4 4 6 4 4 3 4 4 4 2 4 5 4 4 2 1 4 3 3 4 6 6 5 6 6 7 8 8 9 9 9 10 11 12 12 14 14
7 4 5 7 4 4 2 4 3 2 3 1 2 3 2 2 3 3 4 4 4 4 2 2 3 4 4 5 5 3 4 4 4 3 1 3 5 7 6 6 6 7 7 8 7 7 7 7 8 9 8 9 11 15
3 4 4 4 5 1 2 2 3 3 3 2 2 1 1 2 1 3 2 4 7 3 2 3 2 2 1 1 2 3 4 5 7 6 5 7 8 8 9 8 6 7 8 8 10 10 11 11 9 9 10 10 11 13
2 4 3 3 2 2 4 4 4 3 1 1 3 2 1 2 2 1 2 3 5 3 2 2 1 1 0 1 3 5 6 7 7 6 6 4 5 6 6 8 5 3 6 8 9 10 10 12 13 13 12 12 14 14
3 2 2 1 1 2 4 2 2 4 3 2 1 3 2 3 3 1 2 2 2 2 5 4 2 3 3 5 9 10 8 7 7 4 4 3 4 4 4 5 5 7 8 9 9 9 9 10 9 11 13 12 13 15
2 2 1 1 2 1 3 2 3 4 2 3 2 2 2 2 3 1 4 2 2 2 1 1 4 5 3 4 6 5 5 5 4 3 3 3 4 4 4 4 4 6 7 8 8 10 11 13 13 10 12 9 9 11
2 2 2 2 3 3 3 2 2 2 2 1 7 2 5 4 3 2 2 2 3 3 4 4 5 4 4 5 5 7 6 5 2 5 4 3 3 1 1 2 2 4 5 7 8 9 9 8 7 6 6 8 7 6
1 1 1 2 1 1 2 2 2 2 0 1 2 2 3 4 4 3 1 2 3 5 5 4 2 3 3 2 3 6 4 2 7 12 9 5 1 3 5 5 6 6 7 6 4 5 4 4 5 7 8 8 6 6
1 1 1 2 3 2 2 2 3 2 2 4 6 7 7 7 5 3 3 3 2 1 0 1 1 3 3 2 2 4 5 3 3 4 3 2 4 7 9 8 8 9 9 9 7 5 4 4 4 5 5 4 3 4
1 2 3 3 2 3 5 5 6 6 3 3 4 5 8 8 7 4 2 0 0 3 5 4 2 0 1 1 2 3 2 4 3 2 2 4 6 7 9 10 10 10 10 10 10 9 7 6 4 4 4 4 5 4
3 4 2 0 2 5 5 6 6 8 8 5 4 5 7 5 3 3 3 3 4 4 4 3 2 1 2 2 1 2 3 3 3 3 4 4 6 7 8 9 10 10 9 8 7 5 4 4 5 7 7 8 9 7
3 2 2 1 4 5 5 4 5 4 5 4 4 5 4 4 4 2 3 4 6 7 5 2 5 5 2 2 2 3 4 5 5 5 5 6 7 7 7 8 8 8 6 5 4 3 2 3 5 6 5 3 3 2
Wind_Direction
180 184 190 189 189 192 196 190 191 186 185 175 191 207 189 197 137 180 197 198 172 169 183 184 166 153 150 155 139 168 90 78 66 162 174 203 143 196 124 177 162 156 143 163 110 121 231 149 134 163 155 133 140 135
183 187 189 189 195 203 174 187 190 188 193 185 190 211 198 195 118 219 195 193 186 159 141 170 180 140 173 170 142 126 143 167 173 135 188 131 179 92 144 167 129 165 172 155 178 191 17 177 163 143 153 147 144 145
174 183 183 190 193 182 178 185 185 184 187 189 198 218 201 67 184 255 355 169 142 116 111 110 149 187 173 168 173 153 160 183 189 199 149 153 81 67 127 194 109 85 118 98 118 134 100 118 127 140 148 140 140 148
171 177 189 202 193 172 179 178 175 181 186 189 190 208 205 255 64 105 147 155 130 113 88 46 109 145 187 187 198 207 201 177 183 185 100 115 124 290 212 151 119 172 103 119 70 106 112 136 142 144 144 149 149 151
173 177 185 188 191 173 173 174 178 183 175 179 187 218 171 14 126 64 114 108 151 127 111 100 83 93 145 173 179 174 168 158 133 87 68 165 119 126 12 78 76 158 159 155 195 177 140 161 151 154 152 154 159 159
179 180 179 184 174 169 174 175 180 174 179 181 201 167 135 160 137 134 77 108 121 106 97 77 70 82 107 138 139 154 149 144 103 103 112 105 82 190 95 109 344 184 170 149 157 164 169 160 164 164 159 164 168 170
180 179 185 166 161 164 160 164 170 174 162 181 163 113 169 172 54 72 108 138 119 102 100 73 28 30 79 101 100 96 121 99 96 106 93 126 62 67 97 145 167 137 145 143 155 147 138 159 160 163 168 171 173 171
177 175 179 160 160 159 158 157 155 146 146 139 107 118 100 102 117 110 107 125 107 88 82 99 59 36 70 54 65 47 68 62 42 52 89 85 35 47 66 137 143 140 137 144 150 167 167 162 159 167 180 179 179 182
176 178 157 157 161 154 153 151 142 135 139 125 123 124 113 125 120 102 100 98 91 89 110 103 129 185 120 71 66 51 47 41 2 60 38 88 316 234 175 155 152 151 150 154 156 155 158 162 165 176 184 185 193 183
176 165 160 166 161 157 144 146 145 143 137 160 150 116 113 114 124 74 66 95 72 61 57 89 116 128 131 86 59 70 28 121 62 270 53 72 250 288 171 178 173 167 169 167 148 152 164 169 177 185 192 194 193 188
152 149 146 146 159 161 167 158 159 161 143 143 197 76 114 120 114 21 41 49 34 50 46 76 126 116 108 103 149 135 188 50 100 260 115 309 281 198 178 179 178 178 183 182 184 180 185 187 183 185 188 197 200 202
143 143 142 144 148 146 152 153 151 154 158 170 128 115 94 70 68 65 347 1 47 136 60 109 101 92 86 105 100 3 112 42 175 157 79 252 252 175 179 179 176 177 179 178 185 180 182 187 188 188 190 199 205 211
145 146 145 144 150 158 163 162 152 154 133 124 103 67 28 9 47 96 160 360 59 128 126 135 73 91 102 86 73 73 73 214 72 50 222 226 175 169 175 176 176 178 174 175 173 175 174 177 185 191 195 207 210 211
141 138 137 136 131 122 123 139 146 132 99 72 58 39 90 5 56 36 50 135 72 136 129 111 79 93 90 61 119 89 235 71 48 14 241 251 171 169 174 175 174 178 182 182 185 184 185 187 192 201 213 218 217 216
139 140 137 140 138 124 134 147 139 119 53 53 42 54 65 80 52 36 57 90 89 133 123 102 76 92 42 83 70 101 38 234 201 232 249 178 170 169 169 172 177 179 184 186 187 191 195 201 207 212 217 226 224 220
139 140 142 144 150 145 111 139 122 96 64 64 50 52 106 79 28 38 54 64 117 106 101 81 96 65 298 144 106 201 149 210 245 291 55 165 169 173 177 182 187 191 193 197 200 204 203 210 219 224 224 225 227 228
136 124 130 122 122 127 120 98 76 55 51 49 47 69 102 86 59 58 55 67 115 117 54 54 91 196 112 66 75 87 151 37 103 83 116 173 179 183 191 198 202 201 204 213 217 210 212 218 221 224 227 229 230 235
116 118 117 111 106 96 106 98 70 68 62 52 68 78 81 96 89 88 98 84 109 82 49 100 264 76 86 103 18 36 85 105 89 95 137 155 184 195 207 217 216 217 220 221 220 220 223 228 233 238 238 237 239 238
106 99 105 118 111 93 86 66 63 85 66 77 96 91 85 85 87 87 103 100 95 83 83 35 43 36 68 38 27 58 70 69 56 329 112 122 183 197 205 211 217 218 219 224 230 236 242 249 253 250 245 242 244 245
101 91 79 71 74 77 74 59 59 86 96 98 70 66 74 92 85 83 87 89 72 61 58 46 44 26 63 55 66 78 78 84 11 32 27 48 194 197 200 214 225 228 231 233 235 236 237 242 244 243 242 243 246 248
120 98 99 84 67 69 77 65 68 92 107 90 122 70 68 64 58 56 47 36 61 35 68 83 97 88 88 25 8 109 141 165 95 324 327 344 326 314 258 243 240 242 232 235 239 245 252 258 262 260 257 255 254 255
143 110 46 40 58 66 70 49 82 98 81 121 120 67 63 42 34 28 24 56 64 44 60 83 24 23 343 340 32 51 47 49 230 258 265 320 296 308 299 277 270 269 258 261 254 258 270 275 268 262 263 268 261 254
128 101 46 30 61 57 56 39 77 80 102 138 81 57 32 59 27 12 73 74 85 83 97 5 25 38 37 47 51 35 358 342 327 357 259 279 296 301 307 298 305 311 308 304 297 300 300 295 288 283 277 261 260 251
92 44 31 38 42 55 40 50 83 78 107 90 85 57 55 110 40 50 69 67 110 147 25 26 20 157 96 304 340 326 344 330 312 288 280 258 260 269 269 266 282 297 303 304 293 289 285 283 278 278 280 273 267 261
63 23 25 7 67 74 37 13 3 58 96 239 76 357 283 135 67 67 140 90 100 77 22 15 24 30 187 198 269 306 322 317 320 323 303 289 278 277 275 240 242 269 286 292 296 295 291 279 273 266 271 274 269 268
75 27 87 187 256 126 183 100 171 192 130 59 188 100 137 82 63 277 59 114 132 341 343 8 33 293 293 328 323 317 314 317 304 264 263 285 288 297 281 275 261 250 261 268 272 283 285 281 278 273 270 273 274 266
64 294 93 39 342 293 43 80 112 99 109 158 198 124 97 207 231 131 151 161 239 301 106 326 298 306 302 335 327 325 315 323 342 280 257 304 306 293 283 276 263 262 276 281 280 276 277 276 272 270 265 269 271 266
49 37 131 11 54 53 131 53 101 195 235 36 145 144 174 186 185 153 168 177 158 185 206 247 290 294 273 279 305 327 312 301 305 170 166 107 73 63 32 352 317 307 301 291 292 292 295 295 264 252 247 266 266 253
84 115 224 36 111 143 66 159 158 112 349 2 107 107 116 102 120 145 190 221 234 240 252 266 199 171 173 184 316 347 5 35 174 181 191 181 162 21 11 355 343 338 339 335 327 333 326 317 288 276 271 265 245 237
185 249 303 198 124 220 176 157 159 217 134 130 122 122 116 126 129 172 237 226 204 231 301 360 303 201 206 253 343 17 27 47 117 163 185 281 337 338 338 328 319 313 310 307 299 285 299 318 308 283 252 223 203 199
216 181 240 234 200 161 184 173 155 154 144 112 134 141 138 137 143 146 161 158 309 242 256 281 314 255 224 276 286 294 336 23 26 8 333 321 320 324 327 328 328 324 317 307 299 291 278 265 249 240 248 243 246 243
232 218 234 210 146 168 194 180 188 198 186 150 117 123 125 121 103 122 14 302 305 305 291 268 242 189 106 121 330 349 27 30 19 3 350 340 335 332 330 330 332 331 330 334 339 338 314 275 254 230 212 176 158 152
255 225 263 266 168 187 188 207 205 126 84 89 93 124 110 114 101 97 21 342 344 344 340 285 196 193 170 96 228 267 307 331 349 349 344 346 347 345 341 344 354 2 359 359 17 45 89 116 129 129 127 121 113 105